Theta_e
287 286 286 285 284 284 284 284 284 284 285 285 286 286 285 285 286 287 288 288 289 290 290 290 291 293 293 293 295 296 300 304 305 311 315 316 316 317 317 318 317 319 323
283 284 284 283 283 283 283 283 284 284 284 285 285 286 286 285 285 286 286 287 288 288 288 288 289 290 291 291 292 293 295 299 302 299 304 310 313 312 313 315 315 316 316
283 283 283 283 283 282 282 283 283 284 284 284 285 285 285 285 284 284 284 285 286 287 287 287 287 288 289 289 291 292 293 294 299 300 298 305 305 306 311 311 313 313 314
285 284 283 282 282 282 282 283 283 284 283 284 283 283 283 282 283 283 283 284 285 285 285 286 286 287 287 287 289 291 291 293 293 298 298 300 304 307 303 309 310 311 312
284 283 283 284 283 282 281 282 283 283 283 283 283 283 282 282 282 282 282 282 283 283 284 284 285 285 286 287 287 289 290 292 292 293 295 298 301 301 303 302 305 307 311
282 284 284 284 282 282 281 281 282 282 282 282 282 282 282 281 281 281 281 282 282 283 282 283 283 284 285 285 286 288 290 290 291 292 294 294 295 295 297 297 299 300 307
280 281 281 281 281 280 281 281 281 281 282 281 281 282 282 281 281 281 281 281 281 281 281 282 282 283 283 284 285 286 287 288 289 289 291 293 294 295 296 297 296 297 302
279 280 281 282 281 280 281 281 281 281 281 281 281 281 281 281 281 281 281 281 281 281 280 281 281 282 282 283 284 285 286 286 287 288 290 290 292 293 294 294 293 293 299
280 279 278 280 280 279 280 280 281 281 281 281 281 281 281 281 281 281 281 281 280 281 280 280 280 281 281 282 282 283 284 285 286 287 288 289 290 291 292 293 295 293 291
280 280 279 279 279 279 280 279 281 281 282 281 281 280 280 280 281 280 280 280 280 280 279 279 279 280 280 281 281 282 283 283 285 285 285 286 288 290 291 291 293 294 293
281 280 281 280 279 278 277 278 278 279 281 281 280 280 280 280 280 280 280 280 279 279 279 279 279 279 279 280 280 281 281 282 283 284 284 285 286 287 288 290 290 290 291
280 280 280 280 279 278 277 278 278 278 279 281 280 280 280 279 279 279 279 279 279 279 278 278 278 278 278 279 278 279 280 281 281 282 283 284 285 285 286 287 287 288 289
277 277 277 279 280 280 279 278 278 278 279 279 280 280 279 279 278 279 279 279 278 278 278 278 277 277 278 278 278 279 280 281 281 282 282 283 283 283 284 285 286 287 288
279 279 278 279 281 281 280 279 279 279 279 277 279 279 279 279 279 279 278 278 278 277 277 277 277 277 277 277 278 279 280 281 282 283 283 283 283 282 283 285 286 286 286
279 279 280 280 280 280 281 281 280 278 278 276 277 278 279 279 279 278 278 278 277 277 277 276 276 277 277 277 278 280 280 281 281 282 282 283 283 284 285 285 285 285 285
282 282 281 281 280 280 280 281 281 279 278 277 277 279 278 278 278 278 277 277 277 276 276 276 276 275 276 279 280 281 281 281 280 280 281 281 282 283 285 285 287 287 286
285 285 285 284 283 281 282 280 281 280 276 277 277 277 277 277 277 278 277 276 276 276 275 275 275 275 275 278 280 282 282 280 280 280 280 280 282 282 282 284 286 286 287
285 285 286 285 285 282 281 281 279 278 276 276 276 276 276 276 276 277 276 276 276 275 275 274 274 274 275 279 281 282 281 280 280 280 280 280 280 281 282 283 283 284 284
287 286 284 281 277 279 279 278 276 277 275 275 275 275 275 274 275 275 275 276 275 274 274 274 274 273 274 278 280 280 279 278 278 279 280 280 280 282 283 283 282 281 282
274 276 271 271 272 271 272 275 274 273 273 274 274 274 273 274 273 274 274 275 275 274 274 274 274 275 274 277 279 279 278 277 278 279 280 281 281 283 284 282 281 279 281
269 267 269 268 265 267 269 271 271 271 269 270 270 270 271 272 272 270 268 271 273 274 273 273 274 274 274 274 278 279 278 278 278 278 278 280 282 283 283 283 281 281 283
270 268 269 267 266 267 270 269 269 267 268 268 267 266 266 268 267 265 266 270 271 270 270 270 271 272 273 275 277 279 280 280 278 278 279 279 281 282 282 283 283 283 283
268 267 267 266 266 266 267 267 264 266 266 265 264 264 265 265 264 264 264 267 268 268 269 270 270 271 273 274 276 278 279 280 278 278 279 280 281 282 282 282 281 282 280
267 266 267 266 265 265 266 264 266 266 265 264 264 264 263 263 265 266 267 266 267 268 269 270 270 271 272 273 273 274 274 276 276 277 277 278 280 281 281 281 280 279 278
267 266 265 265 264 265 265 266 266 266 265 265 265 266 268 265 266 267 267 267 267 268 268 269 270 269 269 272 274 274 274 275 276 278 277 277 277 277 277 277 277 278 278
267 266 265 264 263 263 264 264 265 265 265 265 266 267 266 267 267 266 266 271 272 273 275 275 271 271 275 276 278 279 280 281 281 279 277 276 276 276 277 276 276 276 276
Wind_Speed
7 9 10 10 8 7 7 6 4 2 1 2 2 3 3 4 7 7 10 10 9 11 11 8 9 8 8 9 11 8 10 6 12 5 4 4 4 4 4 3 2 3 5
8 11 12 11 11 10 8 7 5 4 3 2 2 2 2 4 5 5 8 9 10 11 9 9 8 9 7 11 12 12 7 5 7 5 5 1 1 6 5 3 3 3 2
15 14 14 14 11 11 11 9 8 6 4 4 4 3 3 2 2 4 5 8 9 10 10 10 8 9 8 8 10 11 12 7 4 7 4 4 3 2 2 2 3 4 3
13 14 16 13 13 12 10 9 8 8 5 5 4 4 3 3 2 2 3 5 8 9 9 9 9 9 7 9 9 9 8 8 8 5 7 4 6 2 1 3 1 3 2
14 16 17 16 13 11 11 9 9 7 6 6 5 5 5 5 4 3 4 5 6 7 7 8 7 7 6 8 9 9 10 7 6 7 5 5 5 8 4 3 4 3 3
10 10 10 10 11 9 10 10 10 9 8 7 7 7 8 7 5 4 3 3 3 4 7 6 7 7 7 8 7 8 9 8 7 6 7 6 4 6 3 2 4 5 2
8 11 15 14 11 13 12 11 12 11 10 9 8 8 7 7 7 6 4 4 2 2 5 5 6 6 7 7 7 7 7 7 6 7 6 6 6 6 4 4 3 4 3
8 11 12 13 13 13 13 12 12 10 11 10 10 8 8 5 5 5 4 3 3 2 3 4 5 6 6 6 6 6 6 6 5 7 7 5 6 6 7 5 5 4 3
10 11 8 10 12 13 14 15 13 11 12 12 10 9 8 8 7 6 5 3 3 3 3 3 4 5 5 6 6 5 6 6 6 7 7 6 6 5 5 5 5 4 4
8 10 11 12 10 10 10 11 12 14 11 11 11 10 10 9 7 7 7 6 4 3 3 2 3 4 5 5 5 4 5 5 5 5 7 5 4 5 6 6 5 6 6
9 11 12 12 11 8 11 12 12 13 12 12 10 11 10 10 9 8 8 7 5 5 4 2 2 3 4 5 4 4 4 5 5 6 6 6 7 6 5 5 5 6 6
9 9 9 9 11 13 13 15 13 13 12 11 11 12 11 11 11 10 9 8 8 6 5 4 2 1 2 3 4 3 3 4 5 6 5 6 6 7 7 6 7 6 7
5 5 7 12 13 13 13 13 13 15 12 12 12 12 12 13 13 12 11 10 9 8 6 5 4 3 2 1 1 2 4 4 5 5 6 7 7 6 6 6 6 6 6
7 8 7 12 11 11 13 14 14 14 13 12 13 14 14 14 13 12 11 11 10 9 8 7 5 4 3 3 3 3 4 5 5 6 7 8 7 8 8 7 7 6 7
8 9 11 12 11 11 13 13 13 13 13 13 14 17 13 12 12 12 12 11 11 10 9 7 6 5 5 4 5 4 4 5 6 6 7 7 10 13 10 7 8 9 7
10 10 10 8 11 13 15 13 13 14 14 15 17 13 12 13 14 13 13 12 11 11 10 9 9 8 5 7 7 6 4 5 5 7 7 8 10 9 13 13 12 12 10
12 12 13 13 11 13 13 13 15 11 14 14 13 13 13 14 14 13 13 14 13 12 12 11 10 9 8 9 9 8 5 5 6 7 7 8 7 9 9 12 13 11 14
16 14 11 11 12 8 10 8 9 12 13 13 13 13 14 14 13 14 15 14 12 13 10 11 10 8 7 11 11 10 7 6 7 7 7 8 9 10 10 10 11 9 10
10 9 5 4 3 6 7 9 8 9 10 12 14 13 14 14 13 15 15 13 12 11 10 8 8 8 7 11 11 9 6 7 7 7 8 8 10 12 14 10 10 12 10
3 4 3 3 3 3 2 7 7 7 9 7 8 9 11 12 13 13 13 10 10 10 9 9 8 10 8 11 11 8 5 7 6 6 7 12 11 15 13 9 11 13 12
5 3 4 5 2 3 1 3 4 5 3 5 6 5 7 8 8 7 4 9 9 8 8 8 6 6 5 8 13 13 8 7 7 7 6 6 12 14 15 16 11 12 14
4 4 6 5 4 3 4 5 5 3 5 6 7 6 5 5 5 8 5 8 8 8 7 6 5 5 7 11 12 14 14 12 9 9 7 7 14 16 18 16 16 19 17
4 3 5 6 5 4 4 6 3 4 6 7 7 5 6 6 6 8 7 6 7 6 6 6 6 5 5 5 10 12 13 15 11 8 12 19 18 21 17 17 17 17 7
3 3 5 6 5 4 6 5 5 6 8 9 7 7 8 7 5 5 4 5 4 4 5 5 5 5 5 5 5 6 7 12 11 13 11 14 16 19 17 14 10 8 9
5 4 5 5 6 4 5 5 5 6 8 8 8 8 7 8 7 6 5 3 2 4 4 4 4 4 6 8 12 11 8 7 11 14 10 9 9 9 8 7 8 8 8
4 5 5 7 6 6 6 5 4 5 7 7 5 5 5 5 5 5 4 5 9 11 12 14 12 8 17 18 19 20 21 22 23 12 10 10 10 10 9 9 8 8 10
Wind_Direction
198 169 176 170 163 166 163 164 154 113 96 75 79 61 56 39 46 41 34 33 30 29 30 29 23 17 23 9 5 349 352 4 360 329 5 43 56 56 47 359 346 317 288
185 179 177 178 182 176 179 171 168 159 124 113 97 80 92 68 58 43 41 33 33 31 33 28 25 21 17 21 18 15 360 344 17 353 284 43 100 64 26 12 359 324 319
190 188 185 188 182 185 182 178 172 165 150 131 121 101 91 75 40 36 40 30 34 32 31 28 27 24 25 20 18 17 20 358 346 11 349 341 53 319 83 51 30 25 325
193 188 187 186 190 192 179 175 171 168 162 157 157 171 153 130 106 82 67 53 42 38 32 31 29 28 26 24 15 18 21 16 9 334 1 338 323 350 283 86 4 96 350
190 186 189 190 188 174 177 176 172 175 163 163 154 140 126 118 135 124 100 74 57 46 38 34 32 33 31 27 22 22 28 24 21 13 334 348 342 21 333 0 350 6 3
192 185 183 175 177 167 171 174 176 182 174 174 171 167 154 150 147 143 120 94 80 50 41 39 34 35 32 27 22 24 30 28 24 12 10 12 7 354 358 334 313 332 21
180 181 182 181 175 177 177 178 182 186 183 182 183 180 169 165 157 154 145 133 107 59 37 36 38 34 29 28 26 32 36 27 29 23 12 3 4 358 335 290 347 331 306
204 202 198 189 183 181 180 180 183 186 186 187 191 188 179 175 170 166 152 133 117 107 58 49 45 40 37 31 28 30 30 26 25 24 22 5 350 351 1 335 335 316 295
201 202 192 191 184 186 187 185 183 191 189 192 190 192 188 183 180 170 163 158 149 143 93 66 58 51 43 36 31 36 29 20 17 26 17 3 357 351 323 322 331 328 310
202 198 199 196 192 192 185 183 189 193 190 189 192 194 194 191 182 173 182 182 171 162 142 88 58 51 48 42 33 36 31 27 24 22 13 8 353 331 341 346 329 325 310
209 202 200 196 190 181 182 193 195 193 192 190 188 190 196 194 187 189 189 188 181 182 176 146 77 47 36 29 35 38 29 21 20 16 7 355 346 348 348 343 335 329 310
210 207 195 179 187 194 193 198 197 199 198 190 187 193 192 192 196 198 193 187 190 188 182 171 159 112 48 23 13 12 3 8 6 4 356 344 340 341 342 345 339 326 330
220 198 186 198 203 204 199 202 200 205 196 187 188 192 195 194 201 199 192 189 188 190 190 186 189 194 202 279 300 288 323 337 339 337 332 330 332 333 333 331 325 322 319
209 203 208 211 204 204 205 204 211 204 193 186 192 200 198 199 198 193 191 190 190 190 193 195 195 200 214 247 249 272 306 314 319 318 318 319 319 320 320 320 320 329 322
228 215 210 213 203 201 208 209 212 198 188 188 198 209 199 197 192 191 189 188 191 197 194 189 198 202 213 218 208 241 275 294 303 305 304 300 307 310 312 320 323 316 314
222 227 224 213 207 207 212 205 212 202 182 195 206 203 195 192 195 192 186 185 194 196 193 198 199 202 214 212 229 250 249 262 283 292 290 292 295 300 311 312 310 305 308
223 218 221 217 214 211 208 202 208 182 188 199 201 197 194 198 198 190 185 190 194 189 200 200 199 208 211 222 231 238 238 246 259 270 285 291 287 297 296 298 301 311 311
223 221 220 216 214 197 193 202 174 182 188 196 196 196 194 199 194 191 194 193 188 191 194 200 201 209 217 224 227 229 231 229 242 250 261 270 281 288 293 294 294 305 305
223 219 214 204 189 192 185 179 177 182 185 198 200 196 191 195 191 196 195 192 185 185 189 193 198 214 227 227 234 238 235 241 244 246 246 256 268 276 291 291 305 303 298
106 135 69 26 23 335 165 160 178 173 202 201 200 186 186 193 194 195 190 185 186 182 181 189 196 215 236 236 236 251 258 257 257 250 249 255 267 275 283 293 301 299 300
106 112 91 98 57 336 103 131 148 192 165 143 138 153 180 184 178 153 142 159 171 168 172 178 176 193 224 250 259 256 246 253 263 261 258 255 266 277 283 292 285 285 298
80 66 94 79 53 52 115 129 136 161 133 127 126 130 134 138 139 139 139 155 152 141 157 174 198 211 230 247 256 263 263 258 259 266 267 267 276 277 276 282 291 295 299
82 66 98 89 46 50 98 115 134 126 112 106 110 119 126 128 139 143 141 134 141 156 174 196 201 214 223 227 253 263 269 275 277 275 275 275 275 274 282 285 282 281 305
104 117 116 94 73 43 76 112 136 121 110 107 112 112 109 104 99 119 126 128 146 166 188 205 212 212 227 236 240 256 267 273 275 277 276 269 266 263 266 267 277 279 272
128 123 118 106 102 87 83 92 103 110 111 121 130 133 126 132 131 131 143 161 183 196 194 205 224 228 236 241 242 244 247 248 248 259 259 258 257 255 252 254 259 255 257
124 121 119 117 108 92 79 70 79 92 110 109 112 124 116 124 131 140 147 204 203 224 235 232 214 233 243 247 252 255 261 265 269 267 263 262 260 260 260 256 258 260 264